Regional Weather Roundup
Issued by NWS

Home | Current Version | Previous Version | Graphics & Text | Print | Product List | Glossary On
Versions: 1 2 3 4 5 6 7 8 9 10 11 12 13 14 15 16 17 18 19 20 21 22 23 24 25 26 27 28 29 30 31 32 33 34 35 36 37 38 39 40 41 42 43 44 45 46 47 48 49 50
000
ASUS43 KTOP 021908
RWRKS

WEATHER ROUNDUP FOR KANSAS
NATIONAL WEATHER SERVICE GOODLAND KS
200 PM CDT TUE SEP 02 2014

NOTE:  "FAIR" INDICATES FEW OR NO CLOUDS BELOW 12,000 FEET WITH NO
SIGNIFICANT WEATHER AND/OR OBSTRUCTIONS TO VISIBILITY.

KSZ001>006-013>018-027>032-041>047-022000-
NORTHWEST KANSAS

CITY           SKY/WX    TMP DP  RH WIND       PRES   REMARKS
GOODLAND       SUNNY     82  51  34 S18       30.05F
HAYS           MOSUNNY   82  63  51 SE18      30.01F
HILL CITY      SUNNY     84  59  42 SE10      30.02F
RUSSELL        MOSUNNY   84  64  50 SE15      30.00F
$$

KSZ061>065-074>080-084>089-022000-
SOUTHWEST KANSAS

CITY           SKY/WX    TMP DP  RH WIND       PRES   REMARKS
DODGE CITY     PTSUNNY   79  67  66 SE12      30.03F
ELKHART          N/A     82  63  52 SE6         N/A
GARDEN CITY    CLOUDY    72  65  78 SE14      30.05F
GREAT BEND     CLOUDY    79  68  69 E12       30.02F
LIBERAL        CLOUDY    79  63  57 NE9G16    30.05F
PRATT          MOSUNNY   82  63  51 S14       30.02F
$$

KSZ066>073-081>083-090>101-022000-
SOUTHEAST KANSAS

CITY           SKY/WX    TMP DP  RH WIND       PRES   REMARKS
CHANUTE        CLOUDY    80  66  62 SW14      30.03F
COFFEYVILLE    CLOUDY    76  67  73 S6        30.00F
HUTCHINSON     MOSUNNY   85  69  58 SE13G18   30.00F
MEDICINE LODGE   N/A     79  70  74 S12       30.00F
NEWTON         MOSUNNY   82  68  61 SE12      30.05F
PARSONS        CLOUDY    78  65  63 S12       30.03F
WICHITA INTL   MOSUNNY   85  67  54 S16       30.00F
WICHITA JABRA  SUNNY     84  67  56 SE12      30.00F
WICHITA MCCONL SUNNY     83  68  59 SE15      30.01F
WINFIELD       MOSUNNY   81  68  64 S9        30.01F
$$

KSZ007>012-019>026-033>040-048>060-102>105-022000-
NORTHEAST KANSAS

CITY           SKY/WX    TMP DP  RH WIND       PRES   REMARKS
CONCORDIA      SUNNY     80  62  54 MISG      30.02F
EMPORIA        CLOUDY    78  70  76 S9        30.03S
LAWRENCE       PTSUNNY   79  68  69 S8        30.02F
MANHATTAN      SUNNY     85  63  47 NE6       30.00F
OLATHE IND     CLOUDY    78  69  73 SE7       30.04S
OLATHE EXE     PTSUNNY   77  68  73 S5        30.03R
SALINA         MOSUNNY   86  67  52 E9        30.01R
TOPEKA BILLARD MOSUNNY   82  72  71 SE9       30.01S
TOPEKA FORBES  PTSUNNY   78  68  71 SE9       30.03R
$$


USA.gov is the U.S. government's official web portal to all federal, state and local government web resources and services.